| time (UTC) | temp F | wind direction | speed MPH | gust MPH | rain 1hr in | rain 24hr in | rain mn in | humidity % | barometer mb |
| 20260503171615 | 79 | 19 | 1.0 | 6.0 | 0.00 | 0.00 | 0.00 | 56 | 1008.3 |
| 20260503171112 | 79 | 128 | 1.0 | 6.0 | 0.00 | 0.00 | 0.00 | 55 | 1008.4 |
| 20260503170610 | 79 | 145 | 1.0 | 4.0 | 0.00 | 0.00 | 0.00 | 56 | 1008.4 |
| 20260503170335 | 78 | 38 | 1.0 | 4.0 | 0.00 | 0.00 | 0.00 | 59 | 1008.4 |
| 20260503150552 | 71 | 0 | 1.0 | 8.0 | 0.00 | 0.00 | 0.00 | 75 | 1008.3 |
| 20260503131052 | 56 | 0 | 0.0 | 1.0 | 0.00 | 0.00 | 0.00 | 97 | 1007.8 |
| 20260503130552 | 56 | 0 | 0.0 | 1.0 | 0.00 | 0.00 | 0.00 | 96 | 1007.7 |
| 20260503110544 | 54 | 0 | 0.0 | 0.0 | 0.00 | 0.00 | 0.00 | 93 | 1006.8 |
| 20260503081007 | 56 | 0 | 0.0 | 0.0 | 0.00 | 0.01 | 0.00 | 92 | 1006.4 |
| 20260503080504 | 56 | 0 | 0.0 | 0.0 | 0.00 | 0.01 | 0.00 | 92 | 1006.4 |
| 20260503080229 | 57 | 0 | 0.0 | 0.0 | 0.00 | 0.01 | 0.00 | 92 | 1006.4 |
| 20260503072713 | 57 | 0 | 0.0 | 0.0 | 0.00 | 0.01 | 0.00 | 92 | 1006.4 |
| 20260503071955 | 57 | 0 | 0.0 | 0.0 | 0.00 | 0.01 | 0.00 | 92 | 1006.5 |
| 20260503071721 | 57 | 0 | 0.0 | 0.0 | 0.00 | 0.01 | 0.00 | 92 | 1006.4 |
| 20260503070951 | 57 | 0 | 0.0 | 0.0 | 0.00 | 0.01 | 0.00 | 92 | 1006.5 |
| 20260503070452 | 57 | 0 | 0.0 | 0.0 | 0.00 | 0.01 | 0.00 | 92 | 1006.6 |
| 20260503054439 | 59 | 0 | 0.0 | 0.0 | 0.00 | 0.01 | 0.00 | 90 | 1006.7 |
| 20260503054202 | 59 | 0 | 0.0 | 0.0 | 0.00 | 0.01 | 0.00 | 90 | 1006.7 |
| 20260503053439 | 59 | 0 | 0.0 | 0.0 | 0.00 | 0.01 | 0.00 | 90 | 1006.6 |
| 20260503052940 | 59 | 0 | 0.0 | 0.0 | 0.00 | 0.01 | 0.00 | 90 | 1006.6 |
| 20260503052437 | 59 | 0 | 0.0 | 0.0 | 0.00 | 0.01 | 0.00 | 90 | 1006.5 |
| 20260503051936 | 59 | 0 | 0.0 | 0.0 | 0.00 | 0.01 | 0.00 | 90 | 1006.3 |
| 20260503051429 | 59 | 0 | 0.0 | 0.0 | 0.00 | 0.01 | 0.00 | 90 | 1006.4 |
| 20260503050921 | 59 | 0 | 0.0 | 0.0 | 0.00 | 0.01 | 0.00 | 90 | 1006.4 |
| 20260503050420 | 59 | 0 | 0.0 | 0.0 | 0.00 | 0.01 | 0.00 | 89 | 1006.5 |
| 20260503045920 | 59 | 0 | 0.0 | 0.0 | 0.00 | 0.01 | 0.01 | 89 | 1006.4 |
| 20260503045420 | 59 | 0 | 0.0 | 0.0 | 0.00 | 0.01 | 0.01 | 89 | 1006.4 |
| 20260503044920 | 60 | 0 | 0.0 | 0.0 | 0.00 | 0.01 | 0.01 | 89 | 1006.4 |
| 20260503044419 | 60 | 0 | 0.0 | 0.0 | 0.00 | 0.01 | 0.01 | 88 | 1006.3 |
| 20260503043920 | 60 | 0 | 0.0 | 0.0 | 0.00 | 0.01 | 0.01 | 88 | 1006.3 |
| 20260503043421 | 60 | 0 | 0.0 | 0.0 | 0.00 | 0.01 | 0.01 | 88 | 1006.3 |
| 20260503042920 | 60 | 0 | 0.0 | 0.0 | 0.00 | 0.01 | 0.01 | 88 | 1006.3 |
| 20260503042421 | 60 | 0 | 0.0 | 0.0 | 0.00 | 0.01 | 0.01 | 88 | 1006.2 |
| 20260503041920 | 60 | 0 | 0.0 | 0.0 | 0.00 | 0.01 | 0.01 | 88 | 1006.2 |
| 20260503041420 | 60 | 0 | 0.0 | 0.0 | 0.00 | 0.01 | 0.01 | 87 | 1006.2 |
| 20260503040920 | 60 | 0 | 0.0 | 0.0 | 0.00 | 0.01 | 0.01 | 87 | 1006.3 |
| 20260503040419 | 61 | 0 | 0.0 | 0.0 | 0.00 | 0.01 | 0.01 | 87 | 1006.3 |
| 20260503035921 | 61 | 0 | 0.0 | 0.0 | 0.00 | 0.01 | 0.01 | 87 | 1006.3 |
| 20260503035422 | 61 | 0 | 0.0 | 0.0 | 0.00 | 0.01 | 0.01 | 86 | 1006.4 |
| 20260503034921 | 61 | 0 | 0.0 | 0.0 | 0.00 | 0.01 | 0.01 | 86 | 1006.3 |
| 20260503034421 | 61 | 0 | 0.0 | 0.0 | 0.00 | 0.01 | 0.01 | 86 | 1006.1 |
| 20260503033921 | 61 | 0 | 0.0 | 0.0 | 0.00 | 0.01 | 0.01 | 86 | 1005.9 |
| 20260503033420 | 61 | 0 | 0.0 | 0.0 | 0.00 | 0.01 | 0.01 | 86 | 1005.8 |
| 20260503032920 | 62 | 0 | 0.0 | 0.0 | 0.00 | 0.01 | 0.01 | 85 | 1005.8 |
| 20260503032420 | 62 | 0 | 0.0 | 0.0 | 0.00 | 0.01 | 0.01 | 85 | 1005.8 |
| 20260503031919 | 62 | 0 | 0.0 | 0.0 | 0.00 | 0.01 | 0.01 | 85 | 1005.8 |
| 20260503031420 | 62 | 0 | 0.0 | 0.0 | 0.00 | 0.01 | 0.01 | 85 | 1005.7 |
| 20260503030920 | 62 | 0 | 0.0 | 0.0 | 0.00 | 0.01 | 0.01 | 84 | 1005.8 |
| 20260503030416 | 62 | 0 | 0.0 | 0.0 | 0.00 | 0.01 | 0.01 | 83 | 1005.7 |
| 20260503025915 | 62 | 0 | 0.0 | 0.0 | 0.00 | 0.01 | 0.01 | 83 | 1005.7 |
| 20260503025416 | 63 | 0 | 0.0 | 0.0 | 0.00 | 0.01 | 0.01 | 82 | 1005.7 |
| 20260503024913 | 63 | 0 | 0.0 | 0.0 | 0.00 | 0.01 | 0.01 | 81 | 1005.7 |
| 20260503024414 | 63 | 0 | 0.0 | 0.0 | 0.00 | 0.01 | 0.01 | 81 | 1005.8 |
| 20260503023913 | 63 | 0 | 0.0 | 0.0 | 0.00 | 0.01 | 0.01 | 80 | 1005.8 |
| 20260503023411 | 64 | 0 | 0.0 | 0.0 | 0.00 | 0.01 | 0.01 | 80 | 1005.8 |
| 20260503022912 | 64 | 0 | 0.0 | 0.0 | 0.00 | 0.01 | 0.01 | 79 | 1005.6 |
| 20260503022410 | 64 | 0 | 0.0 | 0.0 | 0.00 | 0.01 | 0.01 | 78 | 1005.4 |
| 20260503022132 | 65 | 0 | 0.0 | 0.0 | 0.00 | 0.01 | 0.01 | 78 | 1005.4 |
| 20260503021406 | 65 | 0 | 0.0 | 0.0 | 0.00 | 0.01 | 0.01 | 77 | 1005.3 |
| 20260503020904 | 65 | 0 | 0.0 | 0.0 | 0.00 | 0.01 | 0.01 | 76 | 1005.3 |
| 20260503020629 | 65 | 0 | 0.0 | 0.0 | 0.00 | 0.01 | 0.01 | 76 | 1005.3 |
| 20260503015902 | 66 | 0 | 0.0 | 0.0 | 0.00 | 0.01 | 0.01 | 76 | 1005.2 |
| 20260503015400 | 66 | 0 | 0.0 | 0.0 | 0.00 | 0.01 | 0.01 | 76 | 1005.0 |
| 20260503015345 | 66 | 0 | 0.0 | 0.0 | 0.00 | 0.01 | 0.01 | 76 | 1005.0 |
| 20260503014355 | 67 | 0 | 0.0 | 0.0 | 0.00 | 0.01 | 0.01 | 75 | 1004.9 |
| 20260503014338 | 67 | 0 | 0.0 | 0.0 | 0.00 | 0.01 | 0.01 | 74 | 1004.9 |
| 20260503013355 | 67 | 0 | 0.0 | 0.0 | 0.00 | 0.01 | 0.01 | 73 | 1004.8 |
| 20260503012857 | 68 | 0 | 0.0 | 0.0 | 0.00 | 0.01 | 0.01 | 73 | 1004.8 |
| 20260503012352 | 68 | 0 | 0.0 | 0.0 | 0.00 | 0.01 | 0.01 | 71 | 1004.8 |
| 20260503011851 | 69 | 0 | 0.0 | 0.0 | 0.00 | 0.02 | 0.01 | 71 | 1004.7 |
| 20260503011350 | 69 | 0 | 0.0 | 0.0 | 0.00 | 0.02 | 0.01 | 71 | 1004.7 |
| 20260503010849 | 70 | 0 | 0.0 | 0.0 | 0.00 | 0.02 | 0.01 | 70 | 1004.7 |
| 20260503010348 | 70 | 0 | 0.0 | 0.0 | 0.00 | 0.02 | 0.01 | 70 | 1004.6 |
| 20260503010106 | 70 | 0 | 0.0 | 0.0 | 0.00 | 0.02 | 0.01 | 69 | 1004.5 |
| 20260503005346 | 71 | 0 | 0.0 | 0.0 | 0.00 | 0.02 | 0.01 | 69 | 1004.5 |
| 20260503004844 | 71 | 0 | 0.0 | 1.0 | 0.00 | 0.03 | 0.01 | 68 | 1004.4 |
| 20260503004342 | 71 | 0 | 0.0 | 1.0 | 0.00 | 0.04 | 0.01 | 67 | 1004.3 |
| 20260503003839 | 72 | 0 | 0.0 | 0.0 | 0.00 | 0.05 | 0.01 | 67 | 1004.3 |
| 20260503003341 | 72 | 0 | 0.0 | 0.0 | 0.00 | 0.05 | 0.01 | 67 | 1004.2 |
| 20260503002836 | 72 | 0 | 0.0 | 0.0 | 0.00 | 0.06 | 0.01 | 66 | 1004.2 |
| 20260503002335 | 72 | 0 | 0.0 | 0.0 | 0.00 | 0.06 | 0.01 | 63 | 1004.1 |
| 20260503001833 | 72 | 0 | 0.0 | 0.0 | 0.00 | 0.06 | 0.01 | 62 | 1004.1 |
| 20260503001334 | 73 | 0 | 0.0 | 0.0 | 0.00 | 0.07 | 0.01 | 62 | 1004.1 |
| 20260503000828 | 73 | 0 | 0.0 | 0.0 | 0.00 | 0.07 | 0.01 | 62 | 1004.0 |
| 20260503000328 | 73 | 0 | 0.0 | 0.0 | 0.00 | 0.09 | 0.01 | 63 | 1004.1 |
| 20260502235827 | 73 | 0 | 0.0 | 0.0 | 0.00 | 0.10 | 0.01 | 63 | 1004.0 |
| 20260502235327 | 73 | 0 | 0.0 | 1.0 | 0.00 | 0.11 | 0.01 | 61 | 1004.0 |
| 20260502234827 | 73 | 0 | 0.0 | 1.0 | 0.00 | 0.12 | 0.01 | 61 | 1003.9 |
| 20260502234327 | 73 | 0 | 0.0 | 1.0 | 0.00 | 0.14 | 0.01 | 60 | 1003.9 |
| 20260502233825 | 74 | 0 | 0.0 | 0.0 | 0.00 | 0.15 | 0.01 | 61 | 1003.9 |
| 20260502233543 | 74 | 0 | 0.0 | 0.0 | 0.00 | 0.16 | 0.01 | 60 | 1003.9 |
| 20260502233043 | 74 | 0 | 1.0 | 3.0 | 0.00 | 0.17 | 0.01 | 61 | 1003.9 |
| 20260502232324 | 74 | 0 | 1.0 | 3.0 | 0.00 | 0.18 | 0.01 | 59 | 1003.9 |
| 20260502231825 | 74 | 0 | 0.0 | 3.0 | 0.00 | 0.18 | 0.01 | 60 | 1003.9 |
| 20260502231324 | 74 | 18 | 1.0 | 2.0 | 0.00 | 0.19 | 0.01 | 60 | 1003.8 |
| 20260502231046 | 74 | 0 | 1.0 | 3.0 | 0.00 | 0.19 | 0.01 | 59 | 1003.8 |
| 20260502230323 | 74 | 0 | 1.0 | 3.0 | 0.00 | 0.20 | 0.01 | 59 | 1004.0 |
| 20260502225821 | 74 | 0 | 1.0 | 3.0 | 0.00 | 0.23 | 0.01 | 60 | 1003.9 |
| 20260502225322 | 74 | 0 | 1.0 | 3.0 | 0.00 | 0.25 | 0.01 | 61 | 1003.9 |
| 20260502224820 | 74 | 0 | 0.0 | 3.0 | 0.00 | 0.26 | 0.01 | 61 | 1003.9 |
| 20260502224315 | 74 | 0 | 1.0 | 4.0 | 0.00 | 0.26 | 0.01 | 60 | 1003.9 |
| 20260502223815 | 74 | 0 | 1.0 | 4.0 | 0.00 | 0.26 | 0.01 | 59 | 1003.9 |
| 20260502223315 | 74 | 0 | 1.0 | 4.0 | 0.00 | 0.26 | 0.01 | 60 | 1004.0 |
| 20260502222815 | 74 | 0 | 1.0 | 4.0 | 0.00 | 0.26 | 0.01 | 59 | 1004.0 |
| 20260502222316 | 74 | 0 | 1.0 | 4.0 | 0.00 | 0.26 | 0.01 | 59 | 1004.0 |
| 20260502222037 | 74 | 0 | 1.0 | 4.0 | 0.00 | 0.26 | 0.01 | 59 | 1004.0 |
| 20260502221317 | 74 | 0 | 1.0 | 3.0 | 0.00 | 0.26 | 0.01 | 59 | 1004.0 |
| 20260502221034 | 74 | 0 | 1.0 | 3.0 | 0.00 | 0.26 | 0.01 | 59 | 1004.1 |
| 20260502220315 | 74 | 0 | 1.0 | 3.0 | 0.00 | 0.26 | 0.01 | 61 | 1004.1 |
| 20260502215812 | 74 | 0 | 2.0 | 4.0 | 0.00 | 0.26 | 0.01 | 57 | 1004.1 |
| 20260502215311 | 74 | 0 | 1.0 | 4.0 | 0.00 | 0.27 | 0.01 | 59 | 1004.2 |
| 20260502214811 | 74 | 0 | 1.0 | 3.0 | 0.00 | 0.28 | 0.01 | 59 | 1004.2 |
| 20260502214312 | 74 | 0 | 1.0 | 3.0 | 0.00 | 0.29 | 0.01 | 60 | 1004.1 |
| 20260502213812 | 74 | 0 | 1.0 | 3.0 | 0.00 | 0.30 | 0.01 | 60 | 1004.2 |
| 20260502213311 | 74 | 0 | 1.0 | 3.0 | 0.00 | 0.32 | 0.01 | 62 | 1004.2 |
| 20260502212812 | 74 | 0 | 1.0 | 3.0 | 0.00 | 0.34 | 0.01 | 60 | 1004.2 |
| 20260502212311 | 74 | 0 | 1.0 | 3.0 | 0.00 | 0.36 | 0.01 | 59 | 1004.2 |
| 20260502211810 | 74 | 80 | 1.0 | 4.0 | 0.00 | 0.39 | 0.01 | 61 | 1004.2 |
| 20260502211533 | 74 | 42 | 1.0 | 4.0 | 0.00 | 0.40 | 0.01 | 61 | 1004.3 |
| 20260502210809 | 74 | 340 | 1.0 | 3.0 | 0.00 | 0.41 | 0.01 | 61 | 1004.3 |
| 20260502210533 | 74 | 0 | 1.0 | 3.0 | 0.00 | 0.42 | 0.01 | 62 | 1004.3 |
| 20260502205807 | 74 | 0 | 1.0 | 3.0 | 0.00 | 0.42 | 0.01 | 61 | 1004.4 |
| 20260502205307 | 74 | 0 | 1.0 | 4.0 | 0.00 | 0.43 | 0.01 | 63 | 1004.5 |
| 20260502204807 | 74 | 0 | 2.0 | 4.0 | 0.00 | 0.44 | 0.01 | 62 | 1004.5 |
| 20260502204308 | 74 | 0 | 2.0 | 4.0 | 0.00 | 0.45 | 0.01 | 60 | 1004.6 |
| 20260502203807 | 74 | 0 | 1.0 | 4.0 | 0.00 | 0.45 | 0.01 | 60 | 1004.6 |
| 20260502203308 | 74 | 0 | 2.0 | 5.0 | 0.00 | 0.45 | 0.01 | 63 | 1004.7 |
| 20260502202803 | 74 | 0 | 2.0 | 5.0 | 0.00 | 0.46 | 0.01 | 61 | 1004.7 |
| 20260502202304 | 74 | 0 | 1.0 | 4.0 | 0.00 | 0.46 | 0.01 | 62 | 1004.8 |
| 20260502202024 | 74 | 0 | 2.0 | 5.0 | 0.00 | 0.47 | 0.01 | 63 | 1004.8 |
| 20260502201302 | 74 | 0 | 2.0 | 5.0 | 0.00 | 0.48 | 0.01 | 62 | 1004.8 |
| 20260502200803 | 74 | 0 | 2.0 | 4.0 | 0.00 | 0.49 | 0.01 | 63 | 1004.9 |
| 20260502200304 | 74 | 0 | 1.0 | 4.0 | 0.00 | 0.50 | 0.01 | 63 | 1004.9 |
| 20260502195805 | 74 | 0 | 2.0 | 4.0 | 0.00 | 0.51 | 0.01 | 61 | 1004.9 |
| 20260502195305 | 74 | 0 | 2.0 | 6.0 | 0.00 | 0.51 | 0.01 | 62 | 1005.0 |
| 20260502194805 | 74 | 0 | 2.0 | 6.0 | 0.00 | 0.52 | 0.01 | 62 | 1005.0 |
| 20260502194303 | 74 | 141 | 2.0 | 6.0 | 0.00 | 0.54 | 0.01 | 62 | 1005.0 |
| 20260502193804 | 74 | 328 | 1.0 | 7.0 | 0.00 | 0.55 | 0.01 | 64 | 1005.1 |
| 20260502193303 | 74 | 323 | 1.0 | 7.0 | 0.00 | 0.56 | 0.01 | 63 | 1005.2 |
| 20260502192803 | 74 | 271 | 2.0 | 4.0 | 0.00 | 0.57 | 0.01 | 64 | 1005.3 |
| 20260502192305 | 74 | 337 | 2.0 | 4.0 | 0.00 | 0.57 | 0.01 | 64 | 1005.4 |
| 20260502192121 | 74 | 17 | 1.0 | 4.0 | 0.00 | 0.57 | 0.01 | 64 | 1005.4 |
| 20260502190804 | 74 | 334 | 2.0 | 6.0 | 0.00 | 0.57 | 0.01 | 63 | 1005.5 |
| 20260502190303 | 74 | 10 | 1.0 | 6.0 | 0.00 | 0.58 | 0.01 | 64 | 1005.6 |
| 20260502185803 | 74 | 0 | 1.0 | 4.0 | 0.00 | 0.58 | 0.01 | 65 | 1005.5 |
| 20260502185305 | 74 | 306 | 2.0 | 4.0 | 0.00 | 0.58 | 0.01 | 66 | 1005.6 |
| 20260502184803 | 73 | 0 | 2.0 | 4.0 | 0.00 | 0.58 | 0.01 | 67 | 1005.7 |
| 20260502184303 | 73 | 16 | 1.0 | 3.0 | 0.00 | 0.58 | 0.01 | 66 | 1005.8 |
| 20260502183803 | 73 | 0 | 0.0 | 1.0 | 0.00 | 0.58 | 0.01 | 65 | 1005.9 |
| 20260502183302 | 73 | 26 | 0.0 | 1.0 | 0.00 | 0.58 | 0.01 | 68 | 1005.9 |
| 20260502183023 | 73 | 117 | 1.0 | 3.0 | 0.00 | 0.58 | 0.01 | 67 | 1005.9 |
| 20260502182304 | 73 | 302 | 1.0 | 4.0 | 0.00 | 0.58 | 0.01 | 70 | 1006.0 |
| 20260502181800 | 73 | 253 | 1.0 | 6.0 | 0.00 | 0.58 | 0.01 | 67 | 1006.1 |
| 20260502181259 | 73 | 288 | 2.0 | 6.0 | 0.00 | 0.58 | 0.01 | 67 | 1006.2 |
| 20260502181023 | 72 | 294 | 2.0 | 6.0 | 0.00 | 0.58 | 0.01 | 67 | 1006.2 |
| 20260502180259 | 72 | 333 | 3.0 | 9.0 | 0.00 | 0.58 | 0.01 | 67 | 1006.3 |